Flag for Canada Weather past 2 weeks in Kugluktuk, Nunavut Territory, Canada

Now
32 °F

Overcast.


Feels Like: 20 °F
Forecast: 29 / 43 °F
Wind: 21 mph from Northwest

Location: Coppermine

Current Time: Sep 23, 2014 at 11:09:03 PM

Latest Report: Sep 23, 2014 at 10:00 PM


Visibility: 15 mi

Pressure: 29.72 "Hg

Humidity: 75%

Dew point: 25 °F

Location of KugluktukLocation

Historic Weather in Kugluktuk — Graph

°F

Kugluktuk temperature yesterday

Maximum temperature yesterday: 41 °F (at 11:00 PM)
Minimum temperature yesterday: 32 °F (at 12:00 AM)
Average temperature yesterday: 37 °F

Past Weeks' High & Low Weather Summary

 TemperatureHumidityPressure
High50 °F (Sep 9, 3:00 PM)100% (Sep 18, 2:00 AM)30.30 "Hg (Sep 18, 2:00 AM)
Low23 °F (Sep 16, 12:00 AM)39% (Sep 16, 4:00 PM)29.17 "Hg (Sep 23, 3:00 AM)
Average35 °F79%29.90 "Hg
* Reported Sep 8 10:00 PM — Sep 23 10:00 PM, Kugluktuk, Weather by CustomWeather, © 2014

Note: Actual official high and low records may vary slightly from our data, if they occured in-between our weather recording intervals... More about our weather records

Advertising

Kugluktuk weather history for previous 24 hours

 ConditionsComfort  
Time TempWeatherWind HumidityBarometerVisibility
10:00 PM
Sep 23
32 °FOvercast.21 mph75%29.72 "Hg15 mi
9:00 PM32 °FMostly cloudy.28 mph75%29.69 "Hg15 mi
8:00 PM32 °FMostly cloudy.25 mph75%29.66 "Hg15 mi
7:00 PM32 °FScattered clouds.35 mph75%29.62 "Hg15 mi
6:00 PM32 °FLow clouds.30 mph80%29.60 "Hg15 mi
5:00 PM32 °FMostly cloudy.35 mph80%29.56 "Hg15 mi
4:00 PM32 °FScattered showers. Mostly cloudy.35 mph80%29.51 "Hg15 mi
3:53 PMN/AScattered showers.37 mphN/AN/A15 mi
3:00 PM32 °FSnow flurries. Mostly cloudy.30 mph80%29.46 "Hg12 mi
2:00 PM32 °FSnow flurries. Low clouds.31 mph87%29.41 "Hg3 mi
1:00 PM34 °FSnow flurries. Low clouds.31 mph87%29.34 "Hg2 mi
12:48 PMN/ASnow flurries.32 mphN/AN/A2 mi
12:00 PM34 °FSnow flurries. Low clouds.24 mph87%29.29 "Hg8 mi
11:48 AMN/ASnow flurries.23 mphN/AN/A8 mi
11:00 AM34 °FSnow flurries. Mostly cloudy.22 mph93%29.25 "Hg3 mi
10:00 AM36 °FDrizzle. Low clouds.21 mph93%29.22 "Hg12 mi
9:00 AM36 °FDrizzle. Mostly cloudy.18 mph93%29.20 "Hg15 mi
8:00 AM34 °FDrizzle. Fog.18 mph100%29.18 "Hg8 mi
7:00 AM36 °FDrizzle. Fog.16 mph93%29.18 "Hg6 mi
6:00 AM36 °FDrizzle. Fog.9 mph100%29.17 "Hg4 mi
5:00 AM41 °FDrizzle. Fog.9 mph93%29.17 "Hg6 mi
4:00 AM41 °FDrizzle. Overcast.12 mph93%29.17 "Hg6 mi
3:00 AM41 °FOvercast.9 mph100%29.17 "Hg8 mi
2:00 AM39 °FDrizzle. Overcast.9 mph100%29.18 "Hg6 mi
1:00 AM39 °FDrizzle. Overcast.8 mph100%29.18 "Hg6 mi
12:00 AM39 °FDrizzle. Overcast.6 mph100%29.18 "Hg6 mi
11:49 PM
Sep 22
N/ADrizzle.3 mphN/AN/A6 mi
11:00 PM41 °FOvercast.3 mph93%29.18 "Hg15 mi
Weather by CustomWeather, © 2014

See weather overviewHow to use our weather pages